Location: Campolattaro
(41.2833°N, 14.7333°E)
Time: 00:35:40
(UTC+00:00)

Cosmos 2082 Rocket - Pass Details

Date: 19 May 2025
Orbit: 831 x 853 km, 71.0° (Epoch: 22 June)

Event Time Altitude Azimuth Distance (km) Brightness Sun altitude
Exits shadow 21:41:43 38° 238° (WSW) 1,239 2.9 -26.3°
Maximum altitude 21:43:37 58° 297° (WNW) 967 2.6 -26.4°
Drops below altitude 10° 21:49:10 10° 16° (NNE) 2,452 5.3 -26.7°
Sets 21:51:40 0° 21° (NNE) 3,393 6.1 -26.9°
